TimeEDT,TemperatureF,Dew PointF,Humidity,Sea Level PressureIn,VisibilityMPH,Wind Direction,Wind SpeedMPH,Gust SpeedMPH,PrecipitationIn,Events,Conditions,WindDirDegrees,DateUTC
12:52 AM,59.0,41.0,51,30.03,10.0,NW,11.5,-,N/A,,Clear,320,2012-10-07 04:52:00
1:52 AM,60.1,42.1,51,30.03,10.0,NNW,11.5,-,N/A,,Mostly Cloudy,330,2012-10-07 05:52:00
2:52 AM,59.0,42.1,53,30.03,10.0,NW,9.2,-,N/A,,Scattered Clouds,320,2012-10-07 06:52:00
3:52 AM,61.0,41.0,48,30.03,10.0,North,11.5,-,N/A,,Mostly Cloudy,360,2012-10-07 07:52:00
4:52 AM,59.0,44.1,58,30.06,10.0,NNE,13.8,-,N/A,,Overcast,30,2012-10-07 08:52:00
5:52 AM,55.9,42.1,60,30.07,10.0,NNE,9.2,-,0.01,,Mostly Cloudy,30,2012-10-07 09:52:00
6:09 AM,55.4,41.0,58,30.06,10.0,NE,11.5,-,N/A,,Overcast,40,2012-10-07 10:09:00
6:52 AM,55.9,39.9,55,30.08,10.0,NE,11.5,-,0.01,,Overcast,50,2012-10-07 10:52:00
7:10 AM,53.6,42.8,67,30.09,10.0,NNE,8.1,-,N/A,Rain,Light Rain,30,2012-10-07 11:10:00
7:52 AM,54.0,43.0,66,30.09,10.0,ENE,8.1,-,N/A,,Overcast,60,2012-10-07 11:52:00
8:52 AM,55.0,41.0,59,30.09,10.0,ENE,10.4,-,N/A,,Overcast,60,2012-10-07 12:52:00
9:44 AM,55.4,42.8,63,30.12,10.0,NNE,6.9,-,N/A,Rain,Light Rain,30,2012-10-07 13:44:00
9:52 AM,54.0,44.1,69,30.11,10.0,NNE,10.4,-,N/A,Rain,Light Rain,30,2012-10-07 13:52:00
10:52 AM,52.0,46.0,80,30.10,9.0,NE,9.2,-,0.09,Rain,Rain,50,2012-10-07 14:52:00
11:52 AM,53.1,46.0,77,30.12,10.0,North,6.9,-,0.03,Rain,Rain,360,2012-10-07 15:52:00
12:27 PM,53.6,46.4,77,30.10,10.0,North,4.6,-,0.00,,Overcast,360,2012-10-07 16:27:00
12:52 PM,54.0,46.9,77,30.08,10.0,NNE,9.2,-,0.00,,Overcast,20,2012-10-07 16:52:00
1:52 PM,55.0,43.0,64,30.07,10.0,North,8.1,-,N/A,,Overcast,10,2012-10-07 17:52:00
2:52 PM,55.0,44.1,67,30.04,10.0,NNE,10.4,-,N/A,,Overcast,20,2012-10-07 18:52:00
3:52 PM,55.0,43.0,64,30.03,10.0,NNE,10.4,-,N/A,,Overcast,20,2012-10-07 19:52:00
4:52 PM,55.0,43.0,64,30.03,10.0,NNE,5.8,-,N/A,,Overcast,20,2012-10-07 20:52:00
5:43 PM,55.4,42.8,63,30.05,10.0,NW,9.2,-,N/A,,Overcast,320,2012-10-07 21:43:00
5:52 PM,55.0,44.1,67,30.06,10.0,NNW,10.4,-,N/A,,Overcast,330,2012-10-07 21:52:00
6:52 PM,53.1,46.9,80,30.10,10.0,NW,10.4,-,N/A,,Overcast,310,2012-10-07 22:52:00
7:23 PM,51.8,48.2,88,30.12,5.0,WNW,9.2,-,0.02,Rain,Rain,290,2012-10-07 23:23:00
7:33 PM,51.8,48.2,88,30.11,4.0,NW,10.4,-,0.04,Rain,Rain,320,2012-10-07 23:33:00
7:52 PM,52.0,48.0,86,30.13,9.0,NW,12.7,-,0.05,Rain,Light Rain,320,2012-10-07 23:52:00
8:00 PM,51.8,48.2,88,30.12,10.0,NW,13.8,-,0.00,,Overcast,320,2012-10-08 00:00:00
8:09 PM,51.8,48.2,88,30.13,9.0,NW,13.8,-,0.00,Rain,Light Rain,320,2012-10-08 00:09:00
8:32 PM,51.8,48.2,88,30.13,9.0,NW,11.5,-,0.00,Rain,Light Rain,310,2012-10-08 00:32:00
8:39 PM,51.8,48.2,88,30.13,10.0,NNW,8.1,-,0.00,,Overcast,330,2012-10-08 00:39:00
8:52 PM,51.1,48.0,89,30.13,10.0,North,4.6,-,0.00,,Overcast,10,2012-10-08 00:52:00
8:59 PM,51.8,48.2,88,30.14,10.0,NW,11.5,-,N/A,,Overcast,320,2012-10-08 00:59:00
9:52 PM,52.0,46.9,83,30.14,10.0,NW,10.4,-,N/A,,Overcast,320,2012-10-08 01:52:00
10:52 PM,51.1,46.0,83,30.15,10.0,WNW,10.4,-,N/A,,Partly Cloudy,300,2012-10-08 02:52:00
11:52 PM,50.0,46.9,89,30.16,10.0,West,4.6,-,N/A,,Scattered Clouds,260,2012-10-08 03:52:00
11:59 PM,50.0,46.4,87,30.16,10.0,West,5.8,-,N/A,,Mostly Cloudy,270,2012-10-08 03:59:00